Location: Baker University - Collins House
(38.7776°N, 95.1893°W)
Time: 04:00:55
(UTC+00:00)

Daily predictions for brighter satellites

Satellite Brightness Start Highest point End
(mag) Time Altitude Azimuth Time Altitude Azimuth Time Altitude Azimuth
BREEZE-M DEB (TANK) 2.3 00:01:12 10° NW 00:04:37 48° NNE 00:06:48 10° ESE
ERS-2 3.3 00:02:13 10° NE 00:05:10 23° E 00:08:06 10° SSE
Cosmos 2263 Rocket 3.4 00:00:51 10° SW 00:06:12 42° WNW 00:11:35 10° N
Cosmos 1939 Rocket 3.1 00:02:24 10° SSE 00:06:23 49° ENE 00:10:21 10° N
Okean 1-7 Rocket 4.2 00:04:06 10° SSE 00:08:14 36° E 00:12:25 10° NNE
NOAA 11 4.3 00:05:01 10° SSE 00:10:31 85° WSW 00:16:04 10° NNW
Cosmos 2142 Rocket 4.4 00:05:57 10° N 00:12:08 82° E 00:18:15 10° S
Nadezhda 4 Rocket 4.4 00:08:03 10° SSE 00:13:52 42° E 00:19:40 10° NNE
Cosmos 1726 Rocket 3.5 00:09:45 10° N 00:14:06 63° E 00:18:27 10° SSE
CZ-4C R/B 4.4 00:11:28 10° WNW 00:14:33 15° NNW 00:17:57 10° N
Lacrosse 5 3.1 00:14:46 10° NNW 00:18:50 24° NNE 00:22:02 14° ENE
CZ-4 R/B 2.4 00:15:56 10° SE 00:19:21 26° ENE 00:22:44 10° NNE
ATLAS 3B R/B 3.6 00:13:14 10° NW 00:20:06 56° WSW 00:27:12 10° SSE
Cosmos 1315 Rocket 3.5 00:17:01 10° NNW 00:20:56 59° W 00:24:53 10° S
ARGOS 4.3 00:17:53 10° ESE 00:21:43 20° ENE 00:25:32 10° NNE
Aureole 2 Rocket 2.1 00:19:11 10° S 00:22:05 57° ESE 00:25:06 10° NNE
Hubble Space Telescope 3.0 00:23:52 10° SSW 00:26:32 17° S 00:29:13 10° SE
CZ-4B R/B 1.4 00:23:41 10° N 00:27:04 79° WNW 00:30:19 10° SSW
Cosmos 1689 Rocket 2.9 00:27:27 18° NE 00:28:49 27° E 00:31:18 10° SSE
Cosmos 1943 4.1 00:27:02 10° NNW 00:32:32 52° WSW 00:37:58 10° S
COSMO-SKYMED 1 2.6 00:28:53 10° NNE 00:33:15 87° WNW 00:37:35 10° SSW
CZ-4 R/B 4.4 00:30:15 10° SSE 00:34:18 59° ENE 00:38:23 10° N
CZ-2C R/B 3.9 00:31:47 15° NE 00:34:36 21° E 00:38:45 10° SE
IRS-1C Rocket 4.1 00:32:12 10° SSE 00:37:22 62° ENE 00:42:34 10° N
Cosmos 1844 3.7 00:33:42 10° S 00:39:13 60° ESE 00:44:50 10° NNE
COSMOS 2455 3.3 00:33:33 10° SW 00:39:30 63° WNW 00:45:30 10° NNE
Okean-O 2.9 00:37:22 10° SE 00:41:32 42° ENE 00:45:44 10° N
Okean O Rocket 3.5 00:39:58 10° SSW 00:43:59 33° W 00:48:00 10° NNW
Feng Yun 1-1 Rocket 4.3 00:41:10 10° SSE 00:46:34 80° WSW 00:52:05 10° NNW
CZ-2D R/B 3.4 00:46:11 10° S 00:50:02 74° WSW 00:53:53 10° NNW
Cosmos 2026 Rocket 4.4 00:45:25 10° SSE 00:50:56 37° E 00:56:31 10° NNE
SAR-Lupe-4 3.4 00:48:44 12° NNE 00:52:02 75° ESE 00:55:35 10° S
CZ-2C R/B 3.2 00:51:28 10° S 00:56:39 82° WSW 01:02:12 10° NNW
H-2A R/B 1.9 00:52:36 10° SSE 00:57:26 58° ENE 01:02:25 10° N
Cosmos 1602 Rocket 3.7 00:54:09 10° SSE 00:58:17 47° E 01:00:31 24° NNE
Cosmos 923 Rocket 4.2 00:55:07 10° N 01:00:15 46° ENE 01:05:20 10° SE
Cosmos 1844 Rocket 2.9 00:54:40 10° SSW 01:00:19 73° WNW 01:06:00 10° NNE
YAOGAN 1 2.4 00:57:30 10° SSE 01:01:47 69° ENE 01:06:05 10° N
SAR-Lupe-1 4.1 00:59:48 14° N 01:02:52 79° WNW 01:06:25 10° SSW
Cosmos 1898 Rocket 3.7 00:57:59 10° S 01:03:00 46° ESE 01:05:07 30° NE
Helios 1A Rocket 3.0 00:59:00 10° SSE 01:03:02 54° ENE 01:07:05 10° N
Cosmos 158 Rocket 4.1 00:58:12 10° N 01:03:29 55° ENE 01:08:45 10° SSE
Meteor 1-21 Rocket 4.1 01:00:25 10° S 01:05:57 89° E 01:11:31 10° N
Cosmos 1680 Rocket 3.9 01:02:35 10° N 01:07:30 40° ENE 01:08:26 36° E
NOSS 2-1 (C) 2.9 01:06:40 10° SSW 01:09:57 59° SE 01:09:57 59° SE
Cosmos 2278 Rocket 3.7 01:05:52 10° SSE 01:08:10 19° SE 01:08:10 19° SE
Cosmos 2098 Rocket 4.5 01:04:22 10° SSE 01:10:54 48° E 01:17:58 10° NNE
Cosmos 1818 4.3 01:08:05 10° SW 01:13:22 51° NW 01:17:34 16° NNE
X-37B 1.5 01:11:44 10° W 01:14:40 41° NNW 01:14:40 41° NNW
NOSS 2-1 (D) 2.9 01:12:31 10° SSW 01:15:41 67° SSE 01:15:41 67° SSE
Cosmos 2195 Rocket 4.4 01:10:13 10° S 01:16:29 74° E 01:22:50 10° N
USA 267 3.4 01:13:39 33° ENE 01:16:32 56° SE 01:22:55 10° SSW
SJ 16-02 2.5 01:16:03 10° SW 01:20:14 42° WNW 01:24:08 12° N
Meteor 2-8 Rocket 4.4 01:15:23 10° N 01:21:24 60° E 01:27:25 10° SSE
CSL-04 Rocket 3.5 01:17:55 10° SSE 01:23:14 68° ENE 01:28:40 10° N
Cosmos 1455 2.9 01:19:33 10° NNW 01:23:17 54° W 01:27:00 10° S
Cosmos 1340 3.0 01:22:10 10° S 01:25:06 54° S 01:25:06 54° S
Cosmos 1627 Rocket 4.3 01:20:47 10° S 01:26:54 80° E 01:33:10 10° N
SJ-11-01 4.3 01:22:13 10° S 01:26:55 77° WSW 01:31:37 10° NNW
Cosmos 1703 3.6 01:23:25 10° SSW 01:27:15 63° W 01:28:44 35° NNW
Iridium 4 Rocket 3.4 01:22:27 10° N 01:28:05 76° E 01:33:14 10° S
ISS -1.8 01:27:15 10° W 01:29:48 22° NNW 01:29:48 22° NNW
Cosmos 1428 Rocket 4.4 01:24:52 10° S 01:31:07 80° E 01:37:26 10° N
Cosmos 1937 Rocket 3.4 01:32:30 10° S 01:37:45 71° ESE 01:37:47 70° ESE
Cosmos 1092 Rocket 4.4 01:35:43 10° SSW 01:41:52 63° W 01:47:59 10° N
Cosmos 2112 Rocket 4.2 01:39:53 10° NNW 01:44:05 56° N 01:44:05 56° N
USA 234 4.3 01:49:42 28° NNE 01:49:42 28° NNE 01:54:40 10° NNW
Cosmos 44 3.9 01:47:33 10° SW 01:52:08 51° NW 01:52:41 49° NNW
CZ-4 R/B 3.8 01:51:01 10° SSW 01:54:18 23° W 01:57:33 10° NW
ARGOS 3.9 01:56:22 10° S 02:01:33 50° W 02:06:46 10° NNW
Lacrosse 5 2.4 01:57:13 10° NW 02:01:18 56° WNW 02:01:18 56° WNW
Hubble Space Telescope 3.4 02:04:07 10° SW 02:05:22 15° SW 02:05:22 15° SW
CZ-2C R/B 3.5 02:13:16 36° NNW 02:15:05 49° WNW 02:20:26 10° SW
NOSS 3-1 (C) 4.3 02:37:42 10° NW 02:44:34 69° WNW 02:44:34 69° WNW
Cosmos 2278 Rocket 4.3 02:48:27 10° SW 02:50:05 19° SW 02:50:05 19° SW
USA 267 4.4 03:01:01 38° WNW 03:01:01 38° WNW 03:05:31 10° WSW
Cosmos 2333 Rocket 4.2 10:20:17 22° NE 10:20:17 22° NE 10:22:14 10° NNE
Cosmos 2219 Rocket 4.1 10:20:31 23° NE 10:20:31 23° NE 10:22:42 10° NE
COSMOS 2428 3.7 10:38:26 41° NE 10:38:26 41° NE 10:42:18 10° NNE
Haruka 4.1 10:54:44 41° SSE 10:54:44 41° SSE 11:03:47 10° ESE
CZ-2C R/B 3.6 10:59:52 20° SE 10:59:52 20° SE 11:02:02 10° ESE
Cosmos 1461 4.2 11:01:19 44° ENE 11:01:19 44° ENE 11:04:47 10° NE
ADEOS 3.8 10:56:05 10° NNE 11:08:37 - S 11:00:58 67° ENE
OAO 2 Rocket 4.1 11:04:20 45° SE 11:04:20 45° SE 11:08:13 10° E
Cosmos 1892 Rocket 4.2 11:12:42 49° NE 11:13:12 52° E 11:17:28 10° SSE
IRIDIUM 106 4.3 11:08:32 10° S 11:13:44 80° E 11:18:58 10° N
Meteor 1-24 Rocket 4.0 11:16:46 51° SSW 11:16:46 51° SSW 11:21:03 10° S
Cosmos 921 Rocket 4.4 11:21:02 28° NNE 11:21:02 28° NNE 11:23:05 10° NNE
Cosmos 1763 Rocket 3.3 11:21:23 81° WSW 11:21:34 84° WNW 11:26:49 10° NNE
COSMO-SKYMED 1 3.0 11:22:14 10° SSE 11:26:30 61° ENE 11:28:27 31° N
Cosmos 841 Rocket 4.2 11:22:57 10° S 11:27:54 52° ESE 11:32:53 10° NNE
SJ 16-02 3.0 11:31:05 22° S 11:31:05 22° S 11:32:45 10° S
CZ-4B R/B 3.4 11:25:28 10° NNE 11:29:01 51° E 11:32:38 10° S
Cosmos 1898 Rocket 3.6 11:29:26 27° N 11:32:15 72° ENE 11:37:24 10° SSE
Lacrosse 5 rocket 3.5 11:34:24 15° NNE 11:35:26 16° NNE 11:37:53 10° ENE
Chandra Rocket (1) 3.8 11:35:57 20° SSW 11:36:30 21° S 11:39:03 10° SE
Lacrosse 4 Rocket 4.0 11:34:49 10° SSE 11:38:01 22° ESE 11:41:17 10° ENE
H-2A R/B 3.6 11:34:44 10° NNE 11:38:20 48° E 11:41:56 10° S
BREEZE M DEB (TANK) 3.5 11:41:00 23° SE 11:41:00 23° SE 11:42:54 10° ENE
Cosmos 1544 Rocket 3.6 11:39:09 10° S 11:43:27 74° E 11:47:46 10° N
FALCON 9 DEB 3.8 11:44:30 45° NNE 11:44:30 45° NNE 11:47:01 10° NE
Atlas Centaur 2 3.9 11:39:07 21° SW 11:44:06 43° S 11:52:01 10° ESE
SL-16 R/B 4.5 11:39:52 10° SSE 11:44:23 25° ESE 11:48:55 10° NE
GPS 2-04 Rocket1 3.9 11:45:43 30° SSW 11:45:52 30° SSW 11:49:31 10° SE
NOSS 0 Rocket 3.8 11:42:38 10° SSW 11:48:50 76° WNW 11:55:02 10° NNE
Cosmos 2278 Rocket 2.5 11:44:08 12° NNW 11:49:19 66° ENE 11:54:56 10° SSE
SKYMED 3 4.4 11:46:09 10° S 11:50:27 70° WSW 11:52:42 28° NNW
Cosmos 1400 Rocket 4.2 11:46:58 10° SSE 11:50:47 41° E 11:54:40 10° NNE
SL-4 R/B 3.1 11:52:49 13° SSW 11:55:50 39° SE 11:59:32 10° ENE
